Sarasota, FL

2:12 PM EST on December 06, 2019 (GMT -0500)
Sarasota-bradenton

Weather History for KSRQ - August, 2019

Change the Weather History Date:

Friday, August 16, 2019

  Actual Average Record
Temperature  
Mean Temperature 79 °F 82 °F  
Max Temperature 83 °F 90 °F 99 °F (1995)
Min Temperature 74 °F 74 °F 67 °F (1972)
Degree Days  
Heating Degree Days 0 0  
Month to date heating degree days 0 0  
Since 1 June heating degree days 0 0  
Since 1 July heating degree days 0 0  
Cooling Degree Days 14 17  
Month to date cooling degree days 295 272  
Year to date cooling degree days 2566 2034  
Since 1 June cooling degree days 1409 1283  
Growing Degree Days 28 (Base 50)    
Moisture  
Dew Point 75 °F    
Average Humidity 90    
Maximum Humidity 97    
Minimum Humidity 79    
Precipitation  
Precipitation 3.29 in 0.33 in 3.29 in (2019)
Month to date precipitation 9.82 4.64  
Year to date precipitation 38.35 33.83  
Sea Level Pressure  
Sea Level Pressure 30.03 in    
Wind  
Wind Speed 9 mph (SSW)    
Max Wind Speed 25 mph    
Max Gust Speed 33 mph    
Visibility 7 miles    
Events Fog , Rain , Thunderstorm    
T = Trace of Precipitation, MM = Missing Value Source: NWS Daily Summary

Daily Weather History Graph

Daily Weather History Graph

Search for Another Location

Airport or City:

Astronomy

Aug. 16, 2019 Rise Set
Actual Time 7:01 AM EDT 8:07 PM EDT
Civil Twilight 6:37 AM EDT 8:31 PM EDT
Nautical Twilight 6:08 AM EDT 9:00 PM EDT
Astronomical Twilight 5:38 AM EDT 9:29 PM EDT
Moon 9:09 PM EDT (8/16) 7:51 AM EDT (8/16)
Length of Visible Light 13h 54m
Length of Day
13h 05m
Full, 99% of the Moon is Illuminated
Aug 16
Full
Aug 23
Last Quarter
Aug 30
New
Sep 5
First Quarter
Sep 14
Full

Hourly Weather History & Observations

Time (EDT) Temp. Heat Index Dew Point Humidity Pressure Visibility Wind Dir Wind Speed Gust Speed Precip Events Conditions
12:53 AM 78.1 °F - 75.9 °F 93% 30.01 in 10.0 mi SSE 6.9 mph - 0.00 in Rain Light Rain
1:01 AM 78.1 °F - 77.0 °F 96% 30.01 in 10.0 mi SSE 6.9 mph - 0.00 in Rain Light Rain
1:30 AM 79.0 °F - 77.0 °F 94% 30.01 in 10.0 mi SSE 6.9 mph - 0.01 in Rain Light Rain
1:53 AM 81.0 °F 87.9 °F 77.0 °F 88% 30.00 in 10.0 mi Variable 6.9 mph - 0.01 in   Scattered Clouds
2:06 AM 80.1 °F 85.8 °F 77.0 °F 90% 29.99 in 10.0 mi ESE 6.9 mph - N/A   Mostly Cloudy
2:53 AM 78.1 °F - 77.0 °F 96% 29.99 in 5.0 mi Variable 3.5 mph - 0.03 in Rain , Thunderstorm Thunderstorms and Rain
2:56 AM 78.1 °F - 77.0 °F 96% 30.01 in 2.5 mi North - - 0.11 in Rain , Thunderstorm Heavy Thunderstorms and Rain
3:10 AM 75.9 °F - 75.0 °F 97% 30.01 in 0.5 mi West 15.0 mph - 1.02 in Fog , Rain , Thunderstorm Heavy Thunderstorms and Rain
3:19 AM 75.9 °F - 75.0 °F 97% 30.01 in 1.0 mi West 15.0 mph 23.0 mph 1.34 in Rain , Thunderstorm Heavy Thunderstorms and Rain
3:27 AM 75.9 °F - 75.0 °F 97% 30.00 in 1.5 mi West 15.0 mph - 1.46 in Rain , Thunderstorm Heavy Thunderstorms and Rain
3:31 AM 75.9 °F - 75.0 °F 97% 30.01 in 2.0 mi WSW 13.8 mph - 1.47 in Rain , Thunderstorm Heavy Rain
3:38 AM 75.9 °F - 73.9 °F 94% 30.01 in 4.0 mi WSW 16.1 mph - 1.49 in Rain , Thunderstorm Rain
3:46 AM 75.9 °F - 73.0 °F 91% 30.02 in 4.0 mi SW 15.0 mph 24.2 mph 1.52 in Rain , Thunderstorm Heavy Rain
3:53 AM 75.9 °F - 73.9 °F 94% 30.01 in 3.0 mi SW 17.3 mph 25.3 mph 1.57 in Rain , Thunderstorm Heavy Rain
4:05 AM 75.9 °F - 73.9 °F 94% 30.01 in 3.0 mi SW 17.3 mph 23.0 mph 0.07 in Rain Heavy Rain
4:53 AM 77.0 °F - 73.0 °F 88% 29.99 in 6.0 mi WSW 10.4 mph - 0.21 in Rain Rain
5:53 AM 77.0 °F - 73.0 °F 88% 29.98 in 3.0 mi SW 10.4 mph - 0.08 in Rain Light Rain
6:53 AM 79.0 °F - 73.0 °F 82% 29.99 in 10.0 mi SSW 9.2 mph - 0.02 in   Clear
7:53 AM 80.1 °F 85.1 °F 75.0 °F 85% 30.00 in 10.0 mi SW 6.9 mph - 0.00 in   Partly Cloudy
8:53 AM 82.0 °F 89.4 °F 75.9 °F 82% 30.04 in 10.0 mi SW 5.8 mph - 0.00 in Rain Light Rain
9:53 AM 82.0 °F 90.2 °F 77.0 °F 85% 30.04 in 10.0 mi NW 8.1 mph - 0.01 in   Mostly Cloudy
10:53 AM 81.0 °F 88.6 °F 78.1 °F 91% 30.05 in 10.0 mi East 5.8 mph - N/A   Mostly Cloudy
11:00 AM 81.0 °F 87.9 °F 77.0 °F 88% 30.05 in 10.0 mi ENE 6.9 mph - N/A   Mostly Cloudy
11:09 AM 80.1 °F 85.8 °F 77.0 °F 90% 30.05 in 10.0 mi ENE 4.6 mph - N/A   Overcast
11:19 AM 80.1 °F 85.8 °F 77.0 °F 90% 30.05 in 10.0 mi East 4.6 mph - N/A   Overcast
11:41 AM 79.0 °F - 75.9 °F 90% 30.06 in 1.5 mi SSW 18.4 mph 25.3 mph 0.17 in Rain Heavy Rain
11:49 AM 77.0 °F - 73.4 °F 89% 30.06 in 0.5 mi SSE 15.0 mph 25.3 mph 0.42 in Fog , Rain Heavy Rain
11:53 AM 77.0 °F - 73.9 °F 90% 30.06 in 1.0 mi SE 8.1 mph 20.7 mph 0.58 in Rain Heavy Rain
11:57 AM 75.9 °F - 73.9 °F 94% 30.05 in 10.0 mi ENE 5.8 mph - 0.09 in Rain Heavy Rain
12:12 PM 75.9 °F - 73.9 °F 94% 30.08 in 10.0 mi ESE 9.2 mph - 0.13 in   Overcast
12:28 PM 75.0 °F - 73.0 °F 94% 30.08 in 3.0 mi South 11.5 mph - 0.16 in Rain Light Rain
12:39 PM 75.9 °F - 73.0 °F 91% 30.07 in 3.0 mi South 9.2 mph - 0.20 in Rain Heavy Rain
12:53 PM 78.1 °F - 75.0 °F 90% 30.06 in 3.0 mi SSW 11.5 mph - 0.25 in Rain Rain
1:01 PM 77.0 °F - 75.0 °F 94% 30.06 in 5.0 mi SSW 10.4 mph - 0.00 in Rain Light Rain
1:53 PM 78.1 °F - 75.0 °F 90% 30.06 in 10.0 mi South 11.5 mph - 0.01 in Rain Light Rain
2:53 PM 79.0 °F - 77.0 °F 94% 30.06 in 10.0 mi SSE 8.1 mph - 0.00 in Rain Light Rain
3:53 PM 80.1 °F 85.4 °F 75.9 °F 87% 30.04 in 10.0 mi SSW 8.1 mph - 0.01 in Rain Light Rain
4:53 PM 77.0 °F - 73.0 °F 88% 30.05 in 9.0 mi WSW 19.6 mph 27.6 mph 0.02 in Rain Light Rain
4:57 PM 75.9 °F - 72.0 °F 87% 30.05 in 9.0 mi West 24.2 mph 31.1 mph 0.00 in Rain Light Rain
5:07 PM 75.0 °F - 72.0 °F 90% 30.05 in 1.8 mi WSW 19.6 mph 33.4 mph 0.08 in Rain Heavy Rain
5:30 PM 75.0 °F - 73.0 °F 94% 30.04 in 1.8 mi SW 9.2 mph - 0.46 in Rain Heavy Rain
5:36 PM 75.9 °F - 73.9 °F 94% 30.04 in 3.0 mi SSW 8.1 mph - 0.48 in Rain Rain
5:43 PM 75.9 °F - 73.0 °F 91% 30.03 in 7.0 mi SSW 9.2 mph - 0.48 in Rain Light Rain
5:53 PM 77.0 °F - 73.9 °F 90% 30.03 in 10.0 mi SSW 8.1 mph - 0.49 in Rain Light Rain
6:53 PM 79.0 °F - 73.0 °F 82% 30.01 in 10.0 mi SW 12.7 mph 20.7 mph 0.00 in Rain Light Rain
7:53 PM 80.1 °F 84.5 °F 73.9 °F 81% 30.01 in 10.0 mi West 12.7 mph - 0.00 in   Mostly Cloudy
8:53 PM 81.0 °F 85.8 °F 73.0 °F 77% 30.01 in 10.0 mi West 8.1 mph - N/A   Clear
9:53 PM 80.1 °F 85.1 °F 75.0 °F 85% 30.03 in 10.0 mi SW 5.8 mph - N/A   Clear
10:53 PM 80.1 °F 84.5 °F 73.9 °F 81% 30.05 in 10.0 mi SSW 4.6 mph - N/A   Mostly Cloudy
11:53 PM 77.0 °F - 73.9 °F 90% 30.06 in 10.0 mi ESE 4.6 mph - N/A   Scattered Clouds